Regional Weather Roundup
Issued by NWS Kansas City/Pleasant Hill, MO

Home | Current Version | Previous Version | Text Only | Print | Product List | Glossary On
Versions: 1 2 3 4 5 6 7 8 9 10 11 12 13 14 15 16 17 18 19 20 21 22 23 24 25 26 27 28 29 30 31 32 33 34 35 36 37 38 39 40 41 42 43 44 45 46 47 48 49 50
000
ASUS43 KEAX 262010
RWREAX

WEATHER ROUNDUP FOR EASTERN KANSAS AND NORTHWEST MISSOURI
NATIONAL WEATHER SERVICE KANSAS CITY/PLEASANT HILL MO
300 PM CDT MON JUN 26 2017

KSZ040-057-103>105-MOZ028-029-037-043-262100-
...KANSAS CITY METROPOLITAN AREA...

CITY           SKY/WX    TMP DP  RH WIND       PRES   REMARKS
K.C. INTL      PTSUNNY   66  56  70 S12       30.15F
K.C. DOWNTOWN  MOSUNNY   70  54  56 SE10G18   30.15F
LEES SUMMIT    PTSUNNY   64  54  69 SE14      30.18F
OLATHE - IXD   MOSUNNY   70  54  56 E14G21    30.18F
OLATHE - OJC   PTSUNNY   66  53  63 E13       30.17F
LAWRENCE       SUNNY     71  53  52 E14G22    30.16F

$$

MOZ001>008-011>017-020>025-030>033-038>040-044>046-053-054-262100-
...NORTHERN AND CENTRAL MISSOURI...

CITY           SKY/WX    TMP DP  RH WIND       PRES   REMARKS
ST. JOSEPH     MOSUNNY   67  61  81 S9        30.16F
WARRENSBURG    CLOUDY    59  54  82 SE7       30.18F
WHITEMAN AFB   CLOUDY    59  59 100 E5        30.20F
CLINTON        PTSUNNY   68  55  64 NE14      30.20S
SEDALIA        RAIN      59  59 100 CALM      30.22F FOG
WARSAW         NOT AVBL
CHILLICOTHE      N/A     66  56  70 S7        30.16F
KIRKSVILLE     SUNNY     71  53  52 SW9G18    30.17F

$$

MOZ041-047>049-056>058-063>065-088>090-097-262100-
...EASTERN AND SOUTHERN MISSOURI...

CITY           SKY/WX    TMP DP  RH WIND       PRES   REMARKS
ST. LOUIS INTL LGT RAIN  72  53  51 N12       30.19S
SPIRIT OF STL  CLOUDY    71  54  54 NE7       30.18S
COLUMBIA       RAIN      60  58  92 S12       30.17F
JEFFERSON CITY HVY RAIN  63  55  75 VRB5      30.19F
ROLLA          CLOUDY    72  56  57 N7        30.17F
OSAGE BEACH    CLOUDY    69  61  75 VRB3      30.19F
SPRINGFIELD    CLOUDY    73  61  65 S7        30.15F
BRANSON        PTSUNNY   81  61  50 CALM      30.17F
JOPLIN         CLOUDY    83  64  52 SW10      30.13F
WEST PLAINS    CLOUDY    75  61  61 SW3       30.17F

$$

IAZ060-094-KSZ022-034>040-054-083-096-NEZ052-066-093-262100-
...KANSAS...SOUTHEAST NEBRASKA AND IOWA...

CITY           SKY/WX    TMP DP  RH WIND       PRES   REMARKS
TOPEKA         SUNNY     74  58  57 E14       30.14F
MANHATTAN      SUNNY     80  60  50 E13       30.11F
EMPORIA        PTSUNNY   78  61  55 NE12      30.11F
CHANUTE        CLOUDY    83  59  44 W12       30.11F
WICHITA        MOSUNNY   86  60  41 SW9       30.08F
OMAHA          PTSUNNY   76  54  46 NE14G22   30.13F
LINCOLN        MOSUNNY   74  62  66 SE6       30.13F
FALLS CITY     LGT RAIN  65  54  67 S7        30.15F
LAMONI         CLOUDY    69  57  65 SW7       30.15F
DES MOINES     MOSUNNY   73  54  51 VRB3      30.13F

$$




USA.gov is the U.S. government's official web portal to all federal, state and local government web resources and services.